FW2557 Weather Reports


Display with metric or nautical units.
time (UTC)temp
F
wind
direction
speed
MPH
gust
MPH
rain 1hr
in
rain 24hr
in
rain mn
in
humidity
%
barometer
mb
20260902150023 83 205 1.0 3.0 0.00 0.00 0.00 74 1014.0
20260902144522 85 185 1.0 4.0 0.00 0.00 0.00 69 1013.7
20260902143020 85 221 0.0 3.0 0.00 0.00 0.00 69 1013.9
20260902141517 87 212 2.0 3.0 0.00 0.00 0.00 61 1014.3
20260902140014 89 102 2.0 7.0 0.00 0.00 0.00 56 1014.6
20260902134513 87 248 2.0 4.0 0.00 0.00 0.00 61 1014.7
20260902133012 87 281 3.0 6.0 0.00 0.00 0.00 61 1014.9
20260902131525 87 158 1.0 3.0 0.00 0.00 0.00 67 1014.9
20260902130008 89 197 1.0 4.0 0.00 0.00 0.00 57 1014.9
20260902124508 90 204 3.0 8.0 0.00 0.00 0.00 49 1014.8
20260902123002 93 150 4.0 9.0 0.00 0.00 0.00 46 1015.0
20260902121559 93 146 2.0 8.0 0.00 0.00 0.00 49 1015.4
20260902120058 92 225 3.0 6.0 0.00 0.00 0.00 49 1015.6
20260902114556 93 169 5.0 9.0 0.00 0.00 0.00 48 1015.8
20260902113057 92 129 2.0 10.0 0.00 0.00 0.00 49 1016.0
20260902111548 92 140 4.0 7.0 0.00 0.00 0.00 51 1016.2
20260902110144 91 224 4.0 8.0 0.00 0.00 0.00 52 1016.4
20260902104545 90 190 2.0 4.0 0.00 0.00 0.00 53 1016.4
20260902103045 90 150 3.0 7.0 0.00 0.00 0.00 54 1016.6
20260902101541 92 215 2.0 5.0 0.00 0.00 0.00 54 1016.6
20260902100039 91 228 1.0 6.0 0.00 0.00 0.00 52 1016.8
20260902094535 90 142 2.0 6.0 0.00 0.00 0.00 51 1016.9
20260902093037 89 64 0.0 4.0 0.00 0.00 0.00 50 1017.0
20260902091528 88 76 2.0 5.0 0.00 0.00 0.00 53 1017.3
20260902090026 87 153 1.0 4.0 0.00 0.00 0.00 59 1017.3
20260902084523 86 182 0.0 2.0 0.00 0.00 0.00 59 1017.4
20260902083018 85 210 0.0 3.0 0.00 0.00 0.00 64 1017.3
20260902081517 84 163 0.0 3.0 0.00 0.00 0.00 65 1017.4
20260902080015 82 218 1.0 3.0 0.00 0.00 0.00 67 1017.4
20260902074613 82 234 0.0 3.0 0.00 0.00 0.00 69 1017.5
20260902073006 80 219 1.0 3.0 0.00 0.00 0.00 72 1017.4
20260902071506 80 243 0.0 3.0 0.00 0.00 0.00 74 1017.4
20260902070101 79 165 1.0 3.0 0.00 0.00 0.00 76 1017.5
20260902064557 78 144 1.0 3.0 0.00 0.00 0.00 80 1017.5
20260902063052 77 13 0.0 2.0 0.00 0.00 0.00 81 1017.5
20260902061559 75 24 0.0 2.0 0.00 0.00 0.00 83 1017.5
20260902060055 74 65 0.0 2.0 0.00 0.00 0.00 86 1017.6
20260902054604 72 208 0.0 1.0 0.00 0.00 0.00 88 1017.6
20260902053050 70 9 0.0 1.0 0.00 0.00 0.00 92 1017.8
20260902051538 68 11 0.0 2.0 0.00 0.00 0.00 94 1017.8
20260902050035 66 161 0.0 2.0 0.00 0.00 0.00 94 1017.8
20260902044537 66 218 0.0 2.0 0.00 0.00 0.00 95 1017.8
20260902043028 65 327 0.0 1.0 0.00 0.00 0.00 94 1017.6
20260902041527 65 327 0.0 2.0 0.00 0.00 0.00 94 1017.5
20260902040024 65 256 0.0 1.0 0.00 0.00 0.00 94 1017.5
20260902034523 65 242 0.0 0.0 0.00 0.00 0.00 94 1017.4
20260902033020 66 242 0.0 0.0 0.00 0.00 0.00 94 1017.3
20260902031518 66 242 1.0 2.0 0.00 0.00 0.00 94 1017.3
20260902030017 66 297 0.0 2.0 0.00 0.00 0.00 94 1017.2
20260902024516 66 242 0.0 3.0 0.00 0.00 0.00 94 1017.1
20260902023014 67 290 0.0 0.0 0.00 0.00 0.00 94 1017.1
20260902021512 67 290 0.0 1.0 0.00 0.00 0.00 94 1017.0
20260902020012 67 254 1.0 3.0 0.00 0.00 0.00 94 1017.0
20260902014509 68 5 0.0 2.0 0.00 0.00 0.00 94 1016.9
20260902013006 68 72 0.0 0.0 0.00 0.00 0.00 94 1016.9
20260902011512 68 71 0.0 1.0 0.00 0.00 0.00 94 1016.8
20260902010005 68 80 0.0 2.0 0.00 0.00 0.00 94 1016.8
20260902004503 69 227 0.0 2.0 0.00 0.00 0.00 93 1016.9
20260902003000 69 252 0.0 1.0 0.00 0.00 0.00 93 1016.8
20260902001620 69 252 0.0 1.0 0.00 0.00 0.00 93 1016.7
20260902000104 70 268 0.0 0.0 0.00 0.00 0.00 93 1016.8
20260901234556 70 274 0.0 3.0 0.00 0.00 0.00 93 1016.7
20260901233057 71 296 0.0 1.0 0.00 0.00 0.00 92 1016.8
20260901231559 71 296 0.0 2.0 0.00 0.00 0.00 92 1016.8
20260901230051 72 329 0.0 0.0 0.00 0.00 0.00 92 1016.6
20260901224549 72 329 0.0 0.0 0.00 0.00 0.00 91 1016.7
20260901223050 73 329 0.0 0.0 0.00 0.00 0.00 90 1016.8
20260901221557 73 329 0.0 1.0 0.00 0.00 0.00 90 1016.8
20260901220050 73 329 0.0 2.0 0.00 0.00 0.00 89 1016.7
20260901214540 73 329 1.0 3.0 0.00 0.00 0.00 89 1016.8
20260901213039 73 273 2.0 3.0 0.00 0.00 0.00 89 1016.7
20260901211537 73 276 1.0 3.0 0.00 0.00 0.00 90 1016.6
20260901210136 73 249 1.0 3.0 0.00 0.00 0.00 90 1016.4
20260901204534 73 252 0.0 3.0 0.00 0.00 0.00 89 1016.4
20260901203032 73 283 0.0 3.0 0.00 0.00 0.00 89 1016.0
20260901201531 73 293 0.0 3.0 0.00 0.00 0.00 89 1015.9
20260901200038 74 269 0.0 3.0 0.00 0.00 0.00 89 1015.8
20260901194530 75 281 0.0 2.0 0.00 0.00 0.00 87 1015.7
20260901193029 76 204 0.0 4.0 0.00 0.00 0.00 85 1015.6
20260901191550 77 175 1.0 4.0 0.00 0.00 0.00 84 1015.7
20260901190033 75 167 0.0 3.0 0.00 0.00 0.00 88 1015.4
20260901184539 75 297 0.0 2.0 0.00 0.00 0.00 86 1015.3
20260901183029 76 262 0.0 1.0 0.00 0.00 0.00 86 1014.9
20260901181528 76 267 1.0 3.0 0.00 0.00 0.00 85 1014.7
20260901180028 77 273 0.0 0.0 0.00 0.00 0.00 85 1014.4
20260901174527 78 286 2.0 3.0 0.00 0.00 0.00 83 1014.1
20260901173026 79 284 0.0 0.0 0.00 0.00 0.00 82 1014.2
20260901171525 80 238 0.0 1.0 0.00 0.00 0.00 80 1013.7
20260901170024 82 207 0.0 2.0 0.00 0.00 0.00 76 1013.8
20260901164537 84 301 0.0 2.0 0.00 0.00 0.00 73 1013.7
20260901163022 85 271 0.0 3.0 0.00 0.00 0.00 70 1013.6
20260901161542 86 147 1.0 3.0 0.00 0.00 0.00 65 1013.5
20260901160019 87 158 1.0 4.0 0.00 0.00 0.00 64 1013.3
20260901154517 89 150 2.0 5.0 0.00 0.00 0.00 57 1013.2
20260901153019 91 188 2.0 6.0 0.00 0.00 0.00 53 1013.2
20260901151516 92 164 2.0 7.0 0.00 0.00 0.00 51 1013.1